Location: Poughquag
(41.6090°N, 73.6820°W)
Time: 02:35:55
(UTC-04:00)

Vanguard 1 Rocket - Pass Details

Date: 02 June 2020
Orbit: 653 x 4224 km, 34.3° (Epoch: 06 July)

Event Time Altitude Azimuth Distance (km) Brightness Sun altitude
Rises 00:24:52 0° 235° (SW) 8,387 12.0 -25.8°
Reaches altitude 10° 00:31:16 10° 231° (SW) 7,142 11.6 -26.0°
Maximum altitude 00:52:22 52° 163° (SSE) 3,244 9.7 -26.1°
Drops below altitude 10° 01:04:03 10° 92° (E) 4,181 10.8 -26.1°
Sets 01:06:43 0° 87° (E) 4,825 11.2 -26.1°
